Regional Weather Roundup
Issued by NWS Goodland, KS

Home | Current Version | Previous Version | Text Only | Print | Product List | Glossary Off
Versions: 1 2 3 4 5 6 7 8 9 10 11 12 13 14 15 16 17 18 19 20 21 22 23 24 25 26 27 28 29 30 31 32 33 34 35 36 37 38 39 40 41 42 43 44 45 46 47 48 49 50

000
ASUS43 KGLD 212359
RWRGLD

GOODLAND FORECAST AREA HOURLY WEATHER ROUNDUP
NATIONAL WEATHER SERVICE GOODLAND KS
600 PM MDT MON JUL 21 2014

...OFFICIAL OBSERVATIONS...

CITY           SKY/WX    TMP DP  RH WIND       PRES   REMARKS
GOODLAND KS    MOSUNNY   94  57  28 S9        30.00R
HILL CITY KS   CLOUDY    93  64  38 S7        29.92R
IMPERIAL NEB   SUNNY     98  59  27 SE9       29.94F
MCCOOK NEB     CLOUDY    93  57  29 S16       29.93R
AKRON CO       MOSUNNY   96  37  12 NE5       30.06S
BURLINGTON CO  MOSUNNY   93  54  26 VRB5      30.04R
LIMON CO       MOSUNNY   90  38  16 S3        30.13S
$$

...UNOFFICIAL OBSERVATIONS...

CITY           SKY/WX    TMP DP  RH WIND       PRES   REMARKS
COLBY KS       SUNNY     90  66  45 NE12      29.98F
GOVE KS          N/A     91  32  12 MISG        N/A
LENORA KS        N/A     87  32  14 MISG        N/A
NORTON KS      SUNNY     91  55  29 S8        29.91S
SHARON SPRINGS   N/A     77  65  67 E12G21      N/A
KIT CARSON CO    N/A     97  54  23 N9G18       N/A
YUMA CO          N/A     94  49  21 SE5G12      N/A
$$


USA.gov is the U.S. government's official web portal to all federal, state and local government web resources and services.